Location: Unspecified
(0.0000°N, 0.0000°E)
Time: 07:16:01
(UTC+00:00)

LightSail 2 - Visible Passes

Search period start: 17 February 2020 00:00
Search period end: 27 February 2020 00:00
Orbit: 701 x 721 km, 24.0° (Epoch: 16 February)

Date Brightness Start Highest point End Pass type
(mag) Time Alt. Az. Time Alt. Az. Time Alt. Az.
20 Feb 7.3 20:06:27 10° SSW 20:08:20 14° S 20:08:20 14° S visible
21 Feb 7.4 19:09:06 10° S 19:10:26 11° SSE 19:11:47 10° SE visible
21 Feb 7.9 20:51:39 10° SW 20:52:08 12° SW 20:52:08 12° SW visible
22 Feb 6.6 19:53:21 10° SSW 19:57:03 24° SSE 19:57:03 24° SSE visible
23 Feb 7.0 18:55:14 10° SSW 18:58:38 18° SSE 19:02:01 10° ESE visible
23 Feb 7.3 20:39:14 10° SW 20:40:56 21° SW 20:40:56 21° SW visible
24 Feb 5.6 19:40:40 10° SW 19:45:29 42° SSE 19:45:55 41° SE visible
25 Feb 6.3 18:42:15 10° SW 18:46:41 29° SSE 18:50:57 11° E visible
25 Feb 6.7 20:27:05 10° WSW 20:29:53 32° WSW 20:29:53 32° WSW visible
26 Feb 7.5 05:21:31 10° NNW 05:24:14 14° NNE 05:26:58 10° NE visible
26 Feb 5.0 19:28:17 10° WSW 19:33:23 77° SSE 19:34:56 45° ENE visible
